Starlink 11433

operational
NORAD ID: 62008 Int'l Des: 2024-213 Owner: SPXS Country: US Constellation: starlink
LEOCIRCULAR

Starlink 11433について

説明を読み込み中...

リアルタイム位置

3D地球を読み込み中...

次回通過

高度履歴

Altitude vs Time

uPlot chart will show altitude changes over time

軌道要素

1 62008U 24213A 25306.26278610 .00251149 00000-0 20107-2 0 9990
2 62008 53.1562 309.2603 0001547 46.9376 313.1771 15.69770771 54906
Epoch: Nov 2, 2025 • Age: 26 hours

現在のステータス

高度 362.9 km
速度 7.69 km/s
衛星直下点 -18.96°S, 123.61°E
打ち上げ日 Nov 18, 2024
運用期間 0.9 years
タイプ internet

技術仕様

分類 Payload
質量 960.00 kg
乾燥質量 910.00 kg
総質量 960.00 kg
長さ 0.30 m
直径 4.10 m
スパン 29.00 m
形状 Box + pan
製造者 SPXS
バスタイプ Starlink V2MD
フェーズステータス In Orbit
所有者/国 SPXS/US

大規模コンステレーション

Loading constellations...